Regional Weather Roundup
Issued by NWS

Home | Current Version | Previous Version | Graphics & Text | Print | Product List | Glossary On
Versions: 1 2 3 4 5 6 7 8 9 10 11 12 13 14 15 16 17 18 19 20 21 22 23 24 25 26 27 28 29 30 31 32 33 34 35 36 37 38 39 40 41 42 43 44 45 46 47 48 49 50
000
ASUS43 KLSX 071557
RWRMO

WEATHER SUMMARY FOR MISSOURI
NATIONAL WEATHER SERVICE SPRINGFIELD MO
1000 AM CST SUN FEB 07 2016

NOTE: "FAIR" INDICATES FEW OR NO CLOUDS BELOW 12,000 FEET WITH NO
       SIGNIFICANT WEATHER AND/OR OBSTRUCTIONS TO VISIBILITY.
       CURRENT SKY AND/OR WEATHER CONDITIONS ARE NOT AVAILABLE FOR
       CHILLICOTHE AND FARMINGTON.

MOZ001>031-035>038-043-044-053-054-071700-
...NORTHERN AND WESTERN MISSOURI...

CITY           SKY/WX    TMP DP  RH WIND       PRES   REMARKS
KANSAS CTY INT CLOUDY    43  29  57 NW10      30.04R
LEE`S SUMMIT   CLOUDY    43  28  55 NW13      30.04R
ST JOSEPH      SUNNY     45  28  51 NW15      30.04S
CHILLICOTHE      N/A     42  29  59 W10G20    29.99R

$$
MOZ066>068-077>081-088>096-101>105-071700-
...SOUTHWEST MISSOURI...

CITY           SKY/WX    TMP DP  RH WIND       PRES   REMARKS
SPRINGFIELD    SUNNY     46  28  49 W21G28    30.06S
JOPLIN         CLOUDY    43  29  57 SW16      30.12R

$$
MOZ032>034-039>042-045>050-055>058-069>072-071700-
...CENTRAL MISSOURI...

CITY           SKY/WX    TMP DP  RH WIND       PRES   REMARKS
COLUMBIA       NOT AVBL
JEFFERSON CITY CLOUDY    45  27  49 W21G29    30.01R
ROLLA          SUNNY     45  30  55 SW15G26   29.98F
SEDALIA        CLOUDY    42  28  57 W10G20    30.02R

$$
MOZ051-052-059>065-071700-
...EAST CENTRAL MISSOURI...

CITY           SKY/WX    TMP DP  RH WIND       PRES   REMARKS
ST LOUIS INTL  PTSUNNY   51  26  37 SW18G26   29.97F

$$
MOZ072>076-082>087-097>100-106>115-071700-
...SOUTH CENTRAL AND SOUTHEAST MISSOURI...

CITY           SKY/WX    TMP DP  RH WIND       PRES   REMARKS
CAPE GIRARDEAU SUNNY     47  28  47 SW14      30.11F
POPLAR BLUFF   SUNNY     45  29  53 SW12      30.11F
WEST PLAINS    CLOUDY    47  27  45 SW14G24   30.08F

$$


USA.gov is the U.S. government's official web portal to all federal, state and local government web resources and services.